Torna al catalogo

STARLINK-37193

AttivoComunicazioniSSO
NORAD 68390·PAYLOAD·🇺🇸 United States

Lanciato Mar 26, 2026 da Vandenberg Space Force Base

Loading…

Prossimi Passaggi (prossime 24 ore)

TLE

AggiornatoSource: CelesTrak SupGP

Epoca: Sep 15, 2026, 03:12 UTC

1 68390C 26063L   26258.13381944 -.00017002  00000+0 -52792-3 0  2586
2 68390  97.2860  42.0096 0000894  85.5967  90.0573 15.33440867    18

Traccia STARLINK-37193 in tempo reale con AllMySat

Download on the App Store